DW4563 Assen NL current weather conditions

sailwx.info

Wind from 266 at 1 knots gusting 6

Air temperature 18.3° C
Dewpoint 14.4° C

Last reported at 2018-Jun-20 20:48 UTC.
Time now 2018-Jun-20 21:16 UTC

Location: N 53°01' E 006°35'.
View on Google Maps.

See reports from other nearby stations

  
Tides and Currents Weather Stations Pressure Air Temp Water Temp Dewpoint Dewpoint Depression Visibility Wind Speed Wind Dir Waves Ship Positions
date/time (UTC)wind fromknots sea level pressurealtimeterstation pressurevisibilityair tempwater tempwave heightnotes
2018-Jun-20 21:08 223 18.3
2018-Jun-20 21:03 221 0 gusting 6 18.3
2018-Jun-20 20:48 266 1 gusting 6 18.3
2018-Jun-20 20:43 229 1 gusting 7 18.3
2018-Jun-20 20:38 223 2 gusting 7 18.9
2018-Jun-20 20:33 231 0 gusting 7 18.9
2018-Jun-20 20:13 237 1 gusting 6 19.4
2018-Jun-20 20:08 239 1 gusting 8 19.4
2018-Jun-20 19:48 278 2 gusting 6 20.0
2018-Jun-20 19:43 277 0 gusting 6 20.0
2018-Jun-20 19:38 291 1 gusting 6 20.0
2018-Jun-20 19:33 262 1 gusting 6 20.0
2018-Jun-20 19:18 285 20.6
2018-Jun-20 19:08 293 20.6
2018-Jun-20 19:03 278 1 gusting 10 20.6
2018-Jun-20 18:48 238 1 gusting 7 21.1
2018-Jun-20 18:43 262 2 gusting 10 21.1
2018-Jun-20 18:38 246 2 gusting 11 21.1
2018-Jun-20 18:33 246 4 gusting 11 21.1
2018-Jun-20 18:08 221 3 gusting 10 21.7
2018-Jun-20 18:03 246 2 gusting 12 21.7
2018-Jun-20 17:43 292 7 gusting 17 22.2
2018-Jun-20 17:38 288 5 gusting 12 22.2
2018-Jun-20 17:18 263 5 gusting 12 22.8
2018-Jun-20 17:13 293 5 gusting 10 23.3
2018-Jun-20 17:03 235 2 gusting 12 23.3
2018-Jun-20 16:38 283 4 gusting 13 23.9
2018-Jun-20 16:18 250 2 gusting 12 24.4
2018-Jun-20 16:13 250 5 gusting 12 24.4
2018-Jun-20 16:08 227 6 gusting 12 24.4
2018-Jun-20 16:03 264 4 gusting 13 24.4
2018-Jun-20 15:48 229 3 gusting 11 24.4
2018-Jun-20 15:43 253 4 gusting 10 25.0
2018-Jun-20 15:38 285 5 gusting 10 25.0
2018-Jun-20 15:33 203 6 gusting 13 25.0
2018-Jun-20 15:18 246 6 gusting 17 25.0
2018-Jun-20 15:13 244 5 gusting 10 25.6
2018-Jun-20 15:03 197 5 gusting 10 25.0
2018-Jun-20 14:43 204 6 gusting 12 25.0
2018-Jun-20 14:38 266 2 gusting 13 24.4
2018-Jun-20 14:33 270 6 gusting 13 24.4
2018-Jun-20 14:18 211 4 gusting 11 25.0
2018-Jun-20 14:13 224 2 gusting 13 24.4
2018-Jun-20 14:08 184 4 gusting 13 24.4
2018-Jun-20 14:03 190 6 gusting 13 24.4
2018-Jun-20 13:43 213 6 gusting 15 24.4
2018-Jun-20 13:38 237 6 gusting 13 24.4
2018-Jun-20 13:18 231 6 gusting 11 24.4
2018-Jun-20 13:08 197 6 gusting 12 25.6
2018-Jun-20 13:03 206 5 gusting 12 25.6
2018-Jun-20 12:48 199 5 gusting 13 25.6
2018-Jun-20 12:38 193 7 gusting 13 25.0
2018-Jun-20 12:18 209 4 gusting 13 25.0
2018-Jun-20 12:13 247 5 gusting 13 24.4
2018-Jun-20 11:33 195 5 gusting 10 23.9
2018-Jun-20 11:18 239 2 gusting 13 23.3
2018-Jun-20 11:13 235 6 gusting 11 23.3
2018-Jun-20 11:08 237 5 gusting 10 23.3
2018-Jun-20 10:48 224 1 gusting 10 23.3
2018-Jun-20 10:38 200 3 gusting 11 23.3
2018-Jun-20 10:33 225 5 gusting 12 23.3
2018-Jun-20 10:18 191 5 gusting 10 23.9
2018-Jun-20 10:13 203 6 gusting 10 23.9
2018-Jun-20 10:08 195 4 gusting 13 23.9
2018-Jun-20 09:48 196 5 gusting 12 23.9
2018-Jun-20 09:38 240 6 gusting 11 23.9
2018-Jun-20 09:33 175 6 gusting 11 23.9
2018-Jun-20 09:18 186 7 gusting 15 23.3
2018-Jun-20 09:08 180 6 gusting 12 22.8
2018-Jun-20 09:03 207 6 gusting 12 23.3
2018-Jun-20 08:48 214 6 gusting 12 22.8
2018-Jun-20 08:43 215 5 gusting 11 22.8
2018-Jun-20 08:38 185 6 gusting 14 22.8
2018-Jun-20 08:33 201 4 gusting 14 22.2
2018-Jun-20 08:18 202 4 gusting 10 21.7
2018-Jun-20 08:08 196 5 gusting 10 21.7
2018-Jun-20 08:03 180 5 gusting 10 21.1
2018-Jun-20 07:43 211 4 gusting 10 21.1
2018-Jun-20 07:38 223 2 gusting 11 21.1
2018-Jun-20 07:33 204 5 gusting 11 20.6
2018-Jun-20 07:18 197 6 gusting 11 20.6
2018-Jun-20 07:13 200 6 gusting 10 20.6
2018-Jun-20 07:08 173 4 gusting 10 20.0
2018-Jun-20 07:03 222 4 gusting 10 20.0
2018-Jun-20 06:43 228 4 gusting 10 19.4
2018-Jun-20 06:38 197 5 gusting 10 19.4
2018-Jun-20 06:33 195 3 gusting 8 19.4
2018-Jun-20 06:13 194 6 gusting 12 18.9
2018-Jun-20 06:08 199 4 gusting 10 18.9
2018-Jun-20 06:03 195 4 gusting 10 18.3
2018-Jun-20 05:48 214 4 gusting 8 18.3
2018-Jun-20 05:38 220 4 gusting 10 17.8
2018-Jun-20 05:03 205 4 gusting 8 17.2
2018-Jun-20 04:48 187 4 gusting 7 16.7
2018-Jun-20 04:43 186 4 gusting 7 16.7
2018-Jun-20 04:38 201 3 gusting 7 16.7
2018-Jun-20 04:13 185 1 gusting 5 16.1
2018-Jun-20 04:08 202 0 gusting 5 16.1
2018-Jun-20 04:03 205 1 gusting 6 16.1
2018-Jun-20 03:48 211 1 gusting 5 15.6
2018-Jun-20 03:43 221 0 gusting 5 15.6
2018-Jun-20 03:38 187 1 gusting 5 15.6
2018-Jun-20 03:33 189 0 gusting 5 15.6
2018-Jun-20 03:18 197 1 gusting 5 15.6
2018-Jun-20 03:03 187 1 gusting 5 15.6
2018-Jun-20 02:48 179 0 gusting 6 15.6
2018-Jun-20 02:43 190 1 gusting 5 15.6
2018-Jun-20 02:33 178 2 gusting 6 15.6
2018-Jun-20 02:13 187 0 gusting 4 15.6
2018-Jun-20 02:08 197 1 gusting 4 15.6
2018-Jun-20 02:03 193 15.6
2018-Jun-20 01:48 203 0 gusting 2 15.6
2018-Jun-20 01:38 200 15.6
2018-Jun-20 01:33 180 0 gusting 5 15.6
2018-Jun-20 01:13 223 1 gusting 4 15.6
2018-Jun-20 01:08 185 15.6
2018-Jun-20 01:03 178 16.1
2018-Jun-20 00:48 182 16.1
2018-Jun-20 00:43 183 16.1
2018-Jun-20 00:38 204 16.1
2018-Jun-20 00:33 188 16.1
2018-Jun-20 00:13 187 16.7
2018-Jun-20 00:08 190 16.7
2018-Jun-20 00:03 187 0 gusting 4 16.7
2018-Jun-19 23:48 188 16.7
2018-Jun-19 23:38 196 16.7
2018-Jun-19 23:33 196 16.7
2018-Jun-19 23:18 188 17.2
2018-Jun-19 23:13 193 17.2
2018-Jun-19 23:03 191 17.2
2018-Jun-19 22:48 182 17.2
2018-Jun-19 22:43 187 17.2
2018-Jun-19 22:38 190 17.2
2018-Jun-19 22:18 184 17.2
2018-Jun-19 22:13 184 17.8
2018-Jun-19 22:08 184 17.8
2018-Jun-19 21:38 182 0 gusting 2 18.3
2018-Jun-19 21:33 198 18.3
2018-Jun-19 21:18 244 18.3
2018-Jun-19 20:48 196 18.9
2018-Jun-19 20:38 184 18.9
2018-Jun-19 20:18 236 0 gusting 6 18.9
2018-Jun-19 20:08 249 0 gusting 2 18.9
2018-Jun-19 20:03 228 18.9
2018-Jun-19 19:33 248 18.9
2018-Jun-19 19:18 215 19.4
2018-Jun-19 19:08 243 0 gusting 6 19.4
2018-Jun-19 18:48 229 2 gusting 6 19.4
2018-Jun-19 18:43 251 0 gusting 6 19.4
2018-Jun-19 18:38 242 19.4
2018-Jun-19 18:08 220 1 gusting 5 20.0
2018-Jun-19 18:03 230 0 gusting 5 20.0
2018-Jun-19 17:43 202 2 gusting 7 20.0
2018-Jun-19 17:38 232 1 gusting 6 20.6
2018-Jun-19 17:33 222 1 gusting 6 20.6
2018-Jun-19 17:18 258 0 gusting 8 20.6
2018-Jun-19 17:13 251 4 gusting 8 20.6
2018-Jun-19 17:03 238 0 gusting 7 20.6
2018-Jun-19 16:38 279 2 gusting 6 20.0
2018-Jun-19 16:33 292 2 gusting 6 20.6
2018-Jun-19 16:18 272 4 gusting 8 20.6
2018-Jun-19 16:13 274 2 gusting 8 20.6
2018-Jun-19 16:08 288 5 gusting 8 20.6
2018-Jun-19 15:48 275 1 gusting 8 20.6
2018-Jun-19 15:43 293 0 gusting 8 20.6
2018-Jun-19 15:38 293 0 gusting 6 21.1
2018-Jun-19 15:33 299 1 gusting 10 21.1
2018-Jun-19 15:18 286 2 gusting 10 21.1
2018-Jun-19 15:13 258 3 gusting 8 21.1
2018-Jun-19 15:08 261 0 gusting 8 21.1
2018-Jun-19 14:48 276 0 gusting 10 21.1
2018-Jun-19 14:33 272 1 gusting 6 21.1
2018-Jun-19 14:18 232 2 gusting 6 20.6
2018-Jun-19 14:13 271 1 gusting 6 20.6
2018-Jun-19 14:03 237 1 gusting 6 20.6
2018-Jun-19 13:48 252 2 gusting 8 20.0
2018-Jun-19 13:43 271 0 gusting 8 20.0
2018-Jun-19 13:38 249 0 gusting 7 20.0
2018-Jun-19 13:18 330 0 gusting 6 20.6
2018-Jun-19 13:03 279 2 gusting 6 21.1
2018-Jun-19 12:43 242 1 gusting 8 20.6
2018-Jun-19 12:38 257 2 gusting 7 21.1
2018-Jun-19 12:33 278 2 gusting 10 21.7
2018-Jun-19 12:08 289 0 gusting 8 21.1
2018-Jun-19 12:03 339 2 gusting 8 21.1
2018-Jun-19 11:48 259 1 gusting 6 20.6
2018-Jun-19 11:43 297 2 gusting 7 20.6
2018-Jun-19 11:38 299 2 gusting 7 20.6
2018-Jun-19 11:33 290 3 gusting 7 20.6
2018-Jun-19 11:03 310 0 gusting 6 18.9
2018-Jun-19 10:48 241 0 gusting 6 18.3
2018-Jun-19 10:33 304 0 gusting 5 18.3
2018-Jun-19 10:13 287 2 gusting 8 18.3
2018-Jun-19 10:03 286 1 gusting 10 18.3
2018-Jun-19 09:43 312 18.9
2018-Jun-19 09:38 223 1 gusting 6 18.3
2018-Jun-19 09:18 291 18.3
2018-Jun-19 09:13 312 1 gusting 6 18.3
2018-Jun-19 09:08 244 2 gusting 6 18.3
2018-Jun-19 09:03 306 1 gusting 10 18.3
2018-Jun-19 08:48 281 0 gusting 6 18.3
2018-Jun-19 08:38 257 1 gusting 6 18.3
2018-Jun-19 08:33 249 0 gusting 6 17.8
2018-Jun-19 08:18 271 17.2
2018-Jun-19 08:13 238 17.2
2018-Jun-19 08:08 254 17.2
2018-Jun-19 07:48 240 16.7
2018-Jun-19 07:43 240 1 gusting 5 16.7
2018-Jun-19 07:38 211 0 gusting 5 16.7
2018-Jun-19 07:33 214 1 gusting 6 16.7
2018-Jun-19 07:13 228 1 gusting 6 16.7
2018-Jun-19 07:08 236 1 gusting 6 16.7
2018-Jun-19 07:03 201 3 gusting 6 16.7
2018-Jun-19 06:48 194 1 gusting 6 16.7
2018-Jun-19 06:38 223 2 gusting 6 16.7
2018-Jun-19 06:18 231 2 gusting 7 16.1
2018-Jun-19 06:13 224 2 gusting 6 16.1
2018-Jun-19 06:03 212 0 gusting 6 16.1
2018-Jun-19 05:43 236 2 gusting 7 16.1
2018-Jun-19 05:33 208 2 gusting 10 16.1
2018-Jun-19 05:13 213 1 gusting 7 16.1
2018-Jun-19 05:08 232 2 gusting 6 16.1
2018-Jun-19 05:03 206 0 gusting 6 16.7
2018-Jun-19 04:48 226 1 gusting 6 16.1
2018-Jun-19 04:38 213 2 gusting 7 16.1
2018-Jun-19 04:18 188 1 gusting 6 16.1
2018-Jun-19 04:08 203 2 gusting 10 16.1
2018-Jun-19 04:03 236 1 gusting 6 16.1
2018-Jun-19 03:48 182 2 gusting 7 15.6
2018-Jun-19 03:43 194 2 gusting 10 15.6
2018-Jun-19 03:18 196 1 gusting 7 15.6
2018-Jun-19 03:08 230 3 gusting 7 15.6
2018-Jun-19 03:03 204 3 gusting 6 15.6
2018-Jun-19 02:48 194 0 gusting 7 15.6
2018-Jun-19 02:18 205 1 gusting 7 15.6
2018-Jun-19 02:13 225 2 gusting 6 15.6
2018-Jun-19 02:08 212 2 gusting 8 15.6
2018-Jun-19 02:03 205 2 gusting 8 15.6
2018-Jun-19 01:48 215 2 gusting 6 15.6
2018-Jun-19 01:43 190 2 gusting 6 15.6
2018-Jun-19 01:38 199 3 gusting 6 15.6
2018-Jun-19 01:18 205 2 gusting 7 15.6
2018-Jun-19 01:08 217 0 gusting 7 15.6
2018-Jun-19 00:43 209 3 gusting 8 15.6
2018-Jun-19 00:38 211 4 gusting 7 15.6
2018-Jun-19 00:33 217 1 gusting 7 15.6
2018-Jun-19 00:13 217 2 gusting 10 15.6
2018-Jun-19 00:08 204 3 gusting 7 15.6
2018-Jun-19 00:03 200 3 gusting 7 15.6
2018-Jun-18 23:48 216 1 gusting 6 15.6
2018-Jun-18 23:43 196 3 gusting 8 15.6
2018-Jun-18 23:38 188 1 gusting 8 15.6
2018-Jun-18 23:33 187 1 gusting 7 15.6
2018-Jun-18 23:13 188 1 gusting 8 15.6
2018-Jun-18 23:08 205 2 gusting 6 15.6
2018-Jun-18 23:03 164 2 gusting 6 15.6
2018-Jun-18 22:48 193 2 gusting 6 15.6
2018-Jun-18 22:43 181 15.6
2018-Jun-18 22:38 200 2 gusting 7 15.6
2018-Jun-18 22:33 204 3 gusting 7 15.6
2018-Jun-18 22:18 207 1 gusting 4 15.6
2018-Jun-18 22:13 189 0 gusting 4 15.6
2018-Jun-18 22:03 181 0 gusting 5 15.6
2018-Jun-18 21:38 234 0 gusting 5 15.6
2018-Jun-18 21:13 210 0 gusting 6 15.6
2018-Jun-18 21:08 225 1 gusting 6 15.6
2018-Jun-18 21:03 247 0 gusting 2 15.6